Flag for U.S.A. Weather past 2 weeks in Arlington, Texas, U.S.A.

Now
56 °F

Fog.


Feels Like: 56 °F
Forecast: 59 / 84 °F
Wind: No wind

Location: Arlington Municipal Airport


UV Index: 7 (High)

Visibility: 6 mi


Pressure: 29.90 "Hg

Humidity: 97%

Dew point: 55 °F

Location of ArlingtonLocation

Historic Weather in Arlington

°F

Arlington temperature yesterday

Maximum temperature yesterday: 83 °F (at 4:53 PM)
Minimum temperature yesterday: 57 °F (at 4:53 AM)
Average temperature yesterday: 70 °F

Past Weeks' High & Low Weather Summary

 TemperatureHumidityPressure
High85 °F (Apr 10, 3:53 PM)97% (Apr 18, 6:53 AM)30.33 "Hg (Apr 18, 6:53 AM)
Low35 °F (Apr 15, 6:53 AM)17% (Apr 15, 3:53 PM)29.54 "Hg (Apr 13, 8:53 PM)
Average64 °F63%30.01 "Hg
* Reported Apr 8 1:53 AM — Apr 23 1:53 AM, Arlington, Weather by CustomWeather, © 2014

Note: Actual official high and low records may vary slightly from our data, if they occured in-between our weather recording intervals... More about our weather records

Advertising

Historic Weather Conditions — Data for Previous 24 hours

 ConditionsComfort  
Time TempWeatherWind HumidityBarometerVisibility
1:53 AM
Apr 23
58 °FClear.No wind93%29.91 "Hg10 mi
12:53 AM60 °FClear.No wind90%29.92 "Hg10 mi
11:53 PM
Apr 22
60 °FClear.No wind93%29.93 "Hg10 mi
10:53 PM64 °FClear.No wind84%29.93 "Hg10 mi
9:53 PM69 °FClear.No wind68%29.93 "Hg10 mi
8:53 PM72 °FSunny.No wind61%29.92 "Hg10 mi
7:53 PM76 °FSunny.6 mph52%29.90 "Hg10 mi
6:53 PM82 °FSunny.3 mph35%29.90 "Hg10 mi
5:53 PM83 °FSunny.5 mph33%29.91 "Hg10 mi
4:53 PM83 °FSunny.8 mph33%29.93 "Hg10 mi
3:53 PM82 °FSunny.3 mph37%29.95 "Hg10 mi
2:53 PM82 °FSunny.7 mph41%29.98 "Hg10 mi
1:53 PM80 °FPassing clouds.7 mph45%30.00 "Hg10 mi
12:53 PM78 °FPartly sunny.9 mph52%30.02 "Hg10 mi
11:53 AM77 °FPassing clouds.8 mph54%30.04 "Hg10 mi
10:53 AM74 °FSunny.12 mph62%30.06 "Hg10 mi
9:53 AM71 °FSunny.14 mph71%30.05 "Hg10 mi
8:53 AM69 °FSunny.9 mph79%30.04 "Hg10 mi
7:53 AM63 °FSunny.5 mph93%30.03 "Hg9 mi
6:53 AM57 °FFog.5 mph96%30.02 "Hg6 mi
5:53 AM60 °FClear.No wind93%29.99 "Hg8 mi
4:53 AM57 °FFog.No wind96%29.98 "Hg1 mi
3:53 AM60 °FFog.No wind93%29.98 "Hg5 mi
Weather by CustomWeather, © 2014

See weather overview